| time (UTC) | temp F | wind direction | speed MPH | gust MPH | rain 1hr in | rain 24hr in | rain mn in | humidity % | barometer mb |
| 20260906113511 | 62 | 284 | 1.0 | 4.0 | 0.00 | 0.00 | 0.00 | 57 | 1010.1 |
| 20260906113011 | 62 | 286 | 1.0 | 4.0 | 0.00 | 0.00 | 0.00 | 57 | 1010.1 |
| 20260906112509 | 62 | 295 | 2.0 | 4.0 | 0.00 | 0.00 | 0.00 | 57 | 1010.0 |
| 20260906112009 | 62 | 300 | 2.0 | 4.0 | 0.00 | 0.00 | 0.00 | 58 | 1010.1 |
| 20260906111509 | 62 | 291 | 2.0 | 4.0 | 0.00 | 0.00 | 0.00 | 58 | 1010.1 |
| 20260906111009 | 62 | 295 | 2.0 | 4.0 | 0.00 | 0.00 | 0.00 | 58 | 1010.2 |
| 20260906110509 | 62 | 301 | 2.0 | 4.0 | 0.00 | 0.00 | 0.00 | 59 | 1010.1 |
| 20260906110012 | 62 | 275 | 1.0 | 3.0 | 0.00 | 0.00 | 0.00 | 59 | 1010.1 |
| 20260906105508 | 62 | 289 | 1.0 | 5.0 | 0.00 | 0.00 | 0.00 | 59 | 1010.1 |
| 20260906105012 | 62 | 326 | 2.0 | 5.0 | 0.00 | 0.00 | 0.00 | 59 | 1010.0 |
| 20260906104515 | 63 | 295 | 2.0 | 6.0 | 0.00 | 0.00 | 0.00 | 59 | 1010.0 |
| 20260906104006 | 63 | 308 | 1.0 | 4.0 | 0.00 | 0.00 | 0.00 | 59 | 1009.9 |
| 20260906103505 | 63 | 311 | 1.0 | 5.0 | 0.00 | 0.00 | 0.00 | 59 | 1010.0 |
| 20260906103005 | 63 | 304 | 2.0 | 5.0 | 0.00 | 0.00 | 0.00 | 59 | 1009.9 |
| 20260906102504 | 63 | 306 | 2.0 | 8.0 | 0.00 | 0.00 | 0.00 | 59 | 1010.0 |
| 20260906102009 | 63 | 316 | 2.0 | 8.0 | 0.00 | 0.00 | 0.00 | 58 | 1010.0 |
| 20260906101605 | 63 | 285 | 2.0 | 5.0 | 0.00 | 0.00 | 0.00 | 59 | 1010.0 |
| 20260906101006 | 63 | 285 | 2.0 | 5.0 | 0.00 | 0.00 | 0.00 | 59 | 1010.0 |
| 20260906100504 | 63 | 309 | 1.0 | 5.0 | 0.00 | 0.00 | 0.00 | 59 | 1010.1 |
| 20260906100002 | 63 | 319 | 1.0 | 7.0 | 0.00 | 0.00 | 0.00 | 59 | 1010.1 |
| 20260906095502 | 64 | 290 | 2.0 | 7.0 | 0.00 | 0.00 | 0.00 | 59 | 1010.0 |
| 20260906095006 | 64 | 337 | 2.0 | 6.0 | 0.00 | 0.00 | 0.00 | 59 | 1010.0 |
| 20260906094506 | 64 | 322 | 2.0 | 8.0 | 0.00 | 0.00 | 0.00 | 59 | 1010.0 |
| 20260906094001 | 64 | 330 | 3.0 | 8.0 | 0.00 | 0.00 | 0.00 | 60 | 1010.0 |
| 20260906093502 | 64 | 310 | 2.0 | 7.0 | 0.00 | 0.00 | 0.00 | 60 | 1010.0 |
| 20260906093107 | 64 | 295 | 2.0 | 7.0 | 0.00 | 0.00 | 0.00 | 60 | 1010.0 |
| 20260906092558 | 64 | 285 | 2.0 | 5.0 | 0.00 | 0.00 | 0.00 | 60 | 1010.0 |
| 20260906092059 | 64 | 285 | 2.0 | 6.0 | 0.00 | 0.00 | 0.00 | 60 | 1010.0 |
| 20260906091600 | 64 | 347 | 3.0 | 8.0 | 0.00 | 0.00 | 0.00 | 60 | 1010.0 |
| 20260906091058 | 64 | 328 | 3.0 | 8.0 | 0.00 | 0.00 | 0.00 | 60 | 1010.0 |
| 20260906090556 | 65 | 320 | 2.0 | 8.0 | 0.00 | 0.00 | 0.00 | 59 | 1010.1 |
| 20260906090056 | 65 | 313 | 2.0 | 6.0 | 0.00 | 0.00 | 0.00 | 59 | 1010.1 |
| 20260906085556 | 65 | 294 | 3.0 | 8.0 | 0.00 | 0.00 | 0.00 | 59 | 1010.0 |
| 20260906085056 | 65 | 329 | 3.0 | 8.0 | 0.00 | 0.00 | 0.00 | 59 | 1010.0 |
| 20260906084556 | 65 | 332 | 4.0 | 9.0 | 0.00 | 0.00 | 0.00 | 59 | 1010.1 |
| 20260906084058 | 65 | 331 | 3.0 | 8.0 | 0.00 | 0.00 | 0.00 | 59 | 1010.1 |
| 20260906083555 | 65 | 324 | 3.0 | 8.0 | 0.00 | 0.00 | 0.00 | 60 | 1010.1 |
| 20260906083055 | 65 | 318 | 4.0 | 8.0 | 0.00 | 0.00 | 0.00 | 60 | 1010.1 |
| 20260906082554 | 65 | 318 | 4.0 | 7.0 | 0.00 | 0.00 | 0.00 | 60 | 1010.1 |
| 20260906082053 | 65 | 342 | 3.0 | 8.0 | 0.00 | 0.00 | 0.00 | 60 | 1010.2 |
| 20260906081555 | 66 | 303 | 3.0 | 8.0 | 0.00 | 0.00 | 0.00 | 59 | 1010.2 |
| 20260906081052 | 66 | 262 | 3.0 | 8.0 | 0.00 | 0.00 | 0.00 | 59 | 1010.2 |
| 20260906080552 | 66 | 332 | 4.0 | 8.0 | 0.00 | 0.00 | 0.00 | 59 | 1010.1 |
| 20260906080054 | 66 | 328 | 3.0 | 8.0 | 0.00 | 0.00 | 0.00 | 59 | 1010.1 |
| 20260906075550 | 66 | 290 | 4.0 | 9.0 | 0.00 | 0.00 | 0.00 | 59 | 1010.2 |
| 20260906075050 | 66 | 304 | 4.0 | 9.0 | 0.00 | 0.00 | 0.00 | 58 | 1010.1 |
| 20260906074553 | 66 | 343 | 4.0 | 9.0 | 0.00 | 0.00 | 0.00 | 58 | 1010.1 |
| 20260906074048 | 67 | 317 | 3.0 | 10.0 | 0.00 | 0.00 | 0.00 | 58 | 1010.1 |
| 20260906073549 | 67 | 328 | 5.0 | 10.0 | 0.00 | 0.00 | 0.00 | 58 | 1010.1 |
| 20260906073047 | 67 | 331 | 4.0 | 9.0 | 0.00 | 0.00 | 0.00 | 58 | 1010.0 |
| 20260906072547 | 67 | 301 | 4.0 | 8.0 | 0.00 | 0.00 | 0.00 | 58 | 1010.0 |
| 20260906072047 | 67 | 348 | 3.0 | 8.0 | 0.00 | 0.00 | 0.00 | 57 | 1010.0 |
| 20260906071545 | 67 | 9 | 3.0 | 8.0 | 0.00 | 0.00 | 0.00 | 57 | 1009.9 |
| 20260906071048 | 67 | 335 | 3.0 | 11.0 | 0.00 | 0.00 | 0.00 | 57 | 1009.9 |
| 20260906070543 | 68 | 303 | 2.0 | 11.0 | 0.00 | 0.00 | 0.00 | 56 | 1009.9 |
| 20260906070042 | 68 | 254 | 3.0 | 11.0 | 0.00 | 0.00 | 0.00 | 56 | 1009.9 |
| 20260906065543 | 68 | 333 | 4.0 | 10.0 | 0.00 | 0.00 | 0.00 | 56 | 1009.8 |
| 20260906065041 | 68 | 316 | 4.0 | 11.0 | 0.00 | 0.00 | 0.00 | 56 | 1009.7 |
| 20260906064541 | 68 | 276 | 3.0 | 11.0 | 0.00 | 0.00 | 0.00 | 56 | 1009.8 |
| 20260906064044 | 69 | 341 | 2.0 | 8.0 | 0.00 | 0.00 | 0.00 | 55 | 1009.8 |
| 20260906063539 | 69 | 334 | 2.0 | 8.0 | 0.00 | 0.00 | 0.00 | 55 | 1009.9 |
| 20260906063040 | 69 | 347 | 4.0 | 8.0 | 0.00 | 0.00 | 0.00 | 54 | 1009.8 |
| 20260906062539 | 69 | 316 | 3.0 | 11.0 | 0.00 | 0.00 | 0.00 | 54 | 1009.7 |
| 20260906062039 | 69 | 330 | 4.0 | 15.0 | 0.00 | 0.00 | 0.00 | 53 | 1009.7 |
| 20260906061541 | 70 | 338 | 6.0 | 15.0 | 0.00 | 0.00 | 0.00 | 53 | 1009.7 |
| 20260906061039 | 70 | 313 | 5.0 | 12.0 | 0.00 | 0.00 | 0.00 | 52 | 1009.7 |
| 20260906060539 | 70 | 339 | 5.0 | 13.0 | 0.00 | 0.00 | 0.00 | 52 | 1009.7 |
| 20260906060040 | 70 | 263 | 5.0 | 13.0 | 0.00 | 0.00 | 0.00 | 51 | 1009.7 |
| 20260906055539 | 71 | 354 | 5.0 | 12.0 | 0.00 | 0.00 | 0.00 | 51 | 1009.7 |
| 20260906055039 | 71 | 343 | 5.0 | 12.0 | 0.00 | 0.00 | 0.00 | 50 | 1009.6 |
| 20260906054539 | 71 | 298 | 5.0 | 11.0 | 0.00 | 0.00 | 0.00 | 50 | 1009.6 |
| 20260906054038 | 71 | 330 | 4.0 | 11.0 | 0.00 | 0.00 | 0.00 | 50 | 1009.7 |
| 20260906053538 | 71 | 316 | 5.0 | 11.0 | 0.00 | 0.00 | 0.00 | 50 | 1009.7 |
| 20260906053039 | 71 | 354 | 5.0 | 11.0 | 0.00 | 0.00 | 0.00 | 50 | 1009.7 |
| 20260906052538 | 71 | 325 | 3.0 | 14.0 | 0.00 | 0.00 | 0.00 | 50 | 1009.6 |
| 20260906052038 | 72 | 337 | 6.0 | 14.0 | 0.00 | 0.00 | 0.00 | 49 | 1009.7 |
| 20260906051537 | 72 | 336 | 6.0 | 12.0 | 0.00 | 0.00 | 0.00 | 49 | 1009.7 |
| 20260906051042 | 72 | 330 | 5.0 | 12.0 | 0.00 | 0.00 | 0.00 | 49 | 1009.7 |
| 20260906050537 | 72 | 341 | 5.0 | 11.0 | 0.00 | 0.00 | 0.00 | 49 | 1009.7 |
| 20260906050037 | 73 | 328 | 5.0 | 13.0 | 0.00 | 0.00 | 0.00 | 49 | 1009.6 |
| 20260906045536 | 73 | 354 | 5.0 | 13.0 | 0.00 | 0.00 | 0.00 | 49 | 1009.6 |
| 20260906045037 | 73 | 335 | 4.0 | 12.0 | 0.00 | 0.00 | 0.00 | 48 | 1009.6 |
| 20260906044542 | 73 | 303 | 4.0 | 12.0 | 0.00 | 0.00 | 0.00 | 48 | 1009.6 |
| 20260906044036 | 74 | 314 | 6.0 | 10.0 | 0.00 | 0.00 | 0.00 | 48 | 1009.7 |
| 20260906043536 | 74 | 275 | 4.0 | 11.0 | 0.00 | 0.00 | 0.00 | 47 | 1009.6 |
| 20260906043043 | 74 | 326 | 5.0 | 11.0 | 0.00 | 0.00 | 0.00 | 47 | 1009.6 |
| 20260906042536 | 74 | 329 | 4.0 | 12.0 | 0.00 | 0.00 | 0.00 | 47 | 1009.5 |
| 20260906042035 | 75 | 284 | 5.0 | 12.0 | 0.00 | 0.00 | 0.00 | 47 | 1009.4 |
| 20260906041538 | 75 | 339 | 4.0 | 10.0 | 0.00 | 0.00 | 0.00 | 47 | 1009.3 |
| 20260906041035 | 75 | 326 | 4.0 | 12.0 | 0.00 | 0.00 | 0.00 | 46 | 1009.2 |
| 20260906040538 | 75 | 335 | 4.0 | 12.0 | 0.00 | 0.00 | 0.00 | 46 | 1009.1 |
| 20260906040038 | 76 | 359 | 3.0 | 11.0 | 0.00 | 0.00 | 0.00 | 46 | 1009.1 |
| 20260906035539 | 76 | 349 | 3.0 | 13.0 | 0.00 | 0.00 | 0.00 | 46 | 1009.1 |
| 20260906035037 | 76 | 343 | 4.0 | 13.0 | 0.00 | 0.00 | 0.00 | 45 | 1009.0 |
| 20260906034542 | 76 | 330 | 5.0 | 12.0 | 0.00 | 0.00 | 0.00 | 45 | 1008.9 |
| 20260906034034 | 77 | 354 | 4.0 | 9.0 | 0.00 | 0.00 | 0.00 | 45 | 1008.9 |
| 20260906033534 | 77 | 303 | 4.0 | 10.0 | 0.00 | 0.00 | 0.00 | 45 | 1008.8 |
| 20260906033034 | 77 | 354 | 3.0 | 9.0 | 0.00 | 0.00 | 0.00 | 45 | 1008.8 |
| 20260906032533 | 77 | 269 | 3.0 | 10.0 | 0.00 | 0.00 | 0.00 | 44 | 1008.7 |
| 20260906032034 | 77 | 344 | 4.0 | 11.0 | 0.00 | 0.00 | 0.00 | 44 | 1008.7 |
| 20260906031545 | 77 | 305 | 4.0 | 10.0 | 0.00 | 0.00 | 0.00 | 44 | 1008.6 |
| 20260906031033 | 78 | 321 | 3.0 | 10.0 | 0.00 | 0.00 | 0.00 | 44 | 1008.5 |
| 20260906030534 | 78 | 347 | 4.0 | 9.0 | 0.00 | 0.00 | 0.00 | 44 | 1008.5 |
| 20260906030033 | 78 | 338 | 4.0 | 11.0 | 0.00 | 0.00 | 0.00 | 44 | 1008.5 |
| 20260906025535 | 78 | 320 | 4.0 | 9.0 | 0.00 | 0.00 | 0.00 | 43 | 1008.4 |
| 20260906025032 | 79 | 333 | 3.0 | 12.0 | 0.00 | 0.00 | 0.00 | 43 | 1008.4 |
| 20260906024532 | 79 | 327 | 3.0 | 12.0 | 0.00 | 0.00 | 0.00 | 43 | 1008.3 |
| 20260906024032 | 79 | 337 | 3.0 | 12.0 | 0.00 | 0.00 | 0.00 | 42 | 1008.3 |
| 20260906023532 | 79 | 284 | 5.0 | 12.0 | 0.00 | 0.00 | 0.00 | 42 | 1008.3 |
| 20260906023032 | 80 | 306 | 4.0 | 14.0 | 0.00 | 0.00 | 0.00 | 42 | 1008.3 |
| 20260906022531 | 80 | 337 | 7.0 | 13.0 | 0.00 | 0.00 | 0.00 | 41 | 1008.2 |
| 20260906022033 | 80 | 306 | 5.0 | 11.0 | 0.00 | 0.00 | 0.00 | 41 | 1008.3 |
| 20260906021531 | 81 | 288 | 5.0 | 11.0 | 0.00 | 0.00 | 0.00 | 40 | 1008.2 |
| 20260906021031 | 81 | 332 | 3.0 | 11.0 | 0.00 | 0.00 | 0.00 | 40 | 1008.3 |
| 20260906020531 | 82 | 342 | 4.0 | 12.0 | 0.00 | 0.00 | 0.00 | 39 | 1008.3 |
| 20260906020040 | 82 | 320 | 5.0 | 12.0 | 0.00 | 0.00 | 0.00 | 38 | 1008.3 |
| 20260906015530 | 83 | 346 | 4.0 | 11.0 | 0.00 | 0.00 | 0.00 | 38 | 1008.3 |
| 20260906015030 | 83 | 310 | 4.0 | 13.0 | 0.00 | 0.00 | 0.00 | 37 | 1008.3 |
| 20260906014534 | 83 | 321 | 5.0 | 13.0 | 0.00 | 0.00 | 0.00 | 37 | 1008.3 |
| 20260906014030 | 84 | 310 | 6.0 | 11.0 | 0.00 | 0.00 | 0.00 | 37 | 1008.3 |
| 20260906013530 | 84 | 347 | 5.0 | 11.0 | 0.00 | 0.00 | 0.00 | 36 | 1008.4 |
| 20260906013030 | 85 | 335 | 6.0 | 11.0 | 0.00 | 0.00 | 0.00 | 35 | 1008.3 |
| 20260906012529 | 86 | 342 | 4.0 | 11.0 | 0.00 | 0.00 | 0.00 | 33 | 1008.3 |
| 20260906012030 | 88 | 354 | 4.0 | 11.0 | 0.00 | 0.00 | 0.00 | 31 | 1008.3 |
| 20260906011529 | 88 | 333 | 2.0 | 5.0 | 0.00 | 0.00 | 0.00 | 31 | 1008.3 |
| 20260906011032 | 88 | 331 | 0.0 | 3.0 | 0.00 | 0.00 | 0.00 | 31 | 1008.3 |
| 20260906010528 | 88 | 100 | 1.0 | 4.0 | 0.00 | 0.00 | 0.00 | 30 | 1008.4 |
| 20260906010029 | 89 | 260 | 2.0 | 4.0 | 0.00 | 0.00 | 0.00 | 30 | 1008.4 |
| 20260906005528 | 88 | 354 | 0.0 | 4.0 | 0.00 | 0.00 | 0.00 | 31 | 1008.3 |
| 20260906005028 | 88 | 4 | 2.0 | 4.0 | 0.00 | 0.00 | 0.00 | 31 | 1008.3 |
| 20260906004528 | 88 | 39 | 2.0 | 5.0 | 0.00 | 0.00 | 0.00 | 31 | 1008.4 |
| 20260906004027 | 88 | 330 | 2.0 | 8.0 | 0.00 | 0.00 | 0.00 | 31 | 1008.4 |
| 20260906003527 | 88 | 263 | 1.0 | 8.0 | 0.00 | 0.00 | 0.00 | 31 | 1008.3 |
| 20260906003029 | 89 | 290 | 1.0 | 7.0 | 0.00 | 0.00 | 0.00 | 31 | 1008.4 |
| 20260906002528 | 89 | 40 | 1.0 | 4.0 | 0.00 | 0.00 | 0.00 | 31 | 1008.3 |
| 20260906002029 | 88 | 25 | 2.0 | 8.0 | 0.00 | 0.00 | 0.00 | 32 | 1008.3 |
| 20260906001531 | 88 | 330 | 3.0 | 8.0 | 0.00 | 0.00 | 0.00 | 31 | 1008.4 |
| 20260906001026 | 88 | 264 | 1.0 | 9.0 | 0.00 | 0.00 | 0.00 | 31 | 1008.4 |
| 20260906000527 | 88 | 266 | 4.0 | 9.0 | 0.00 | 0.00 | 0.00 | 31 | 1008.4 |
| 20260906000027 | 88 | 271 | 1.0 | 7.0 | 0.00 | 0.00 | 0.00 | 31 | 1008.4 |
| 20260905235527 | 89 | 251 | 3.0 | 7.0 | 0.00 | 0.00 | 0.00 | 30 | 1008.3 |
| 20260905235028 | 89 | 295 | 2.0 | 6.0 | 0.00 | 0.00 | 0.00 | 30 | 1008.4 |
| 20260905234524 | 90 | 85 | 0.0 | 6.0 | 0.00 | 0.00 | 0.00 | 31 | 1008.5 |
| 20260905234031 | 89 | 18 | 1.0 | 6.0 | 0.00 | 0.00 | 0.00 | 30 | 1008.5 |
| 20260905233524 | 88 | 27 | 2.0 | 7.0 | 0.00 | 0.00 | 0.00 | 31 | 1008.5 |
| 20260905233030 | 88 | 270 | 2.0 | 7.0 | 0.00 | 0.00 | 0.00 | 30 | 1008.5 |
| 20260905232523 | 88 | 350 | 1.0 | 4.0 | 0.00 | 0.00 | 0.00 | 31 | 1008.6 |
| 20260905232022 | 88 | 293 | 1.0 | 4.0 | 0.00 | 0.00 | 0.00 | 30 | 1008.6 |
| 20260905231521 | 88 | 359 | 1.0 | 9.0 | 0.00 | 0.00 | 0.00 | 31 | 1008.7 |
| 20260905231021 | 87 | 247 | 2.0 | 9.0 | 0.00 | 0.00 | 0.00 | 32 | 1008.8 |
| 20260905230524 | 88 | 354 | 1.0 | 5.0 | 0.00 | 0.00 | 0.00 | 31 | 1008.8 |
| 20260905230020 | 89 | 327 | 2.0 | 4.0 | 0.00 | 0.00 | 0.00 | 31 | 1008.9 |
| 20260905225519 | 89 | 246 | 1.0 | 5.0 | 0.00 | 0.00 | 0.00 | 30 | 1009.0 |
| 20260905225018 | 89 | 257 | 2.0 | 5.0 | 0.00 | 0.00 | 0.00 | 30 | 1009.1 |
| 20260905224518 | 89 | 38 | 2.0 | 6.0 | 0.00 | 0.00 | 0.00 | 30 | 1009.2 |
| 20260905224016 | 89 | 69 | 1.0 | 6.0 | 0.00 | 0.00 | 0.00 | 31 | 1009.1 |
| 20260905223515 | 88 | 27 | 1.0 | 5.0 | 0.00 | 0.00 | 0.00 | 31 | 1009.2 |
| 20260905223030 | 88 | 15 | 1.0 | 6.0 | 0.00 | 0.00 | 0.00 | 31 | 1009.3 |
| 20260905222514 | 88 | 318 | 3.0 | 6.0 | 0.00 | 0.00 | 0.00 | 31 | 1009.3 |
| 20260905222018 | 88 | 240 | 1.0 | 8.0 | 0.00 | 0.00 | 0.00 | 32 | 1009.4 |
| 20260905221532 | 86 | 35 | 3.0 | 8.0 | 0.00 | 0.00 | 0.00 | 32 | 1009.4 |
| 20260905221012 | 86 | 321 | 2.0 | 8.0 | 0.00 | 0.00 | 0.00 | 32 | 1009.4 |
| 20260905220510 | 87 | 264 | 4.0 | 8.0 | 0.00 | 0.00 | 0.00 | 31 | 1009.5 |
| 20260905220010 | 87 | 119 | 2.0 | 5.0 | 0.00 | 0.00 | 0.00 | 31 | 1009.6 |
| 20260905215513 | 86 | 232 | 2.0 | 5.0 | 0.00 | 0.00 | 0.00 | 31 | 1009.7 |
| 20260905215009 | 87 | 237 | 3.0 | 6.0 | 0.00 | 0.00 | 0.00 | 30 | 1009.8 |
| 20260905214508 | 87 | 258 | 3.0 | 6.0 | 0.00 | 0.00 | 0.00 | 31 | 1009.8 |
| 20260905214007 | 86 | 323 | 0.0 | 9.0 | 0.00 | 0.00 | 0.00 | 32 | 1009.9 |
| 20260905213506 | 86 | 255 | 4.0 | 9.0 | 0.00 | 0.00 | 0.00 | 32 | 1010.0 |
| 20260905213006 | 86 | 272 | 1.0 | 3.0 | 0.00 | 0.00 | 0.00 | 31 | 1009.9 |
| 20260905212506 | 85 | 202 | 0.0 | 10.0 | 0.00 | 0.00 | 0.00 | 31 | 1010.0 |
| 20260905212005 | 86 | 168 | 2.0 | 10.0 | 0.00 | 0.00 | 0.00 | 31 | 1010.0 |
| 20260905211513 | 86 | 48 | 1.0 | 7.0 | 0.00 | 0.00 | 0.00 | 31 | 1010.1 |
| 20260905211004 | 85 | 201 | 1.0 | 7.0 | 0.00 | 0.00 | 0.00 | 31 | 1010.1 |
| 20260905210505 | 86 | 154 | 3.0 | 8.0 | 0.00 | 0.00 | 0.00 | 31 | 1010.2 |
| 20260905210006 | 86 | 89 | 3.0 | 6.0 | 0.00 | 0.00 | 0.00 | 31 | 1010.3 |
| 20260905205503 | 86 | 339 | 1.0 | 5.0 | 0.00 | 0.00 | 0.00 | 31 | 1010.3 |
| 20260905205004 | 85 | 291 | 2.0 | 6.0 | 0.00 | 0.00 | 0.00 | 32 | 1010.3 |
| 20260905204503 | 85 | 97 | 2.0 | 6.0 | 0.00 | 0.00 | 0.00 | 30 | 1010.2 |
| 20260905204001 | 85 | 205 | 1.0 | 6.0 | 0.00 | 0.00 | 0.00 | 31 | 1010.3 |
| 20260905203600 | 84 | 201 | 2.0 | 6.0 | 0.00 | 0.00 | 0.00 | 31 | 1010.3 |
| 20260905203059 | 83 | 252 | 1.0 | 9.0 | 0.00 | 0.00 | 0.00 | 32 | 1010.4 |
| 20260905202557 | 83 | 265 | 4.0 | 9.0 | 0.00 | 0.00 | 0.00 | 32 | 1010.4 |
| 20260905202057 | 83 | 258 | 2.0 | 8.0 | 0.00 | 0.00 | 0.00 | 34 | 1010.5 |
| 20260905201607 | 82 | 304 | 4.0 | 8.0 | 0.00 | 0.00 | 0.00 | 33 | 1010.5 |
| 20260905201056 | 83 | 277 | 3.0 | 8.0 | 0.00 | 0.00 | 0.00 | 33 | 1010.5 |
| 20260905200555 | 82 | 338 | 2.0 | 8.0 | 0.00 | 0.00 | 0.00 | 33 | 1010.5 |
| 20260905200120 | 81 | 251 | 1.0 | 7.0 | 0.00 | 0.00 | 0.00 | 34 | 1010.6 |
| 20260905195558 | 81 | 303 | 2.0 | 8.0 | 0.00 | 0.00 | 0.00 | 34 | 1010.7 |
| 20260905195054 | 81 | 280 | 3.0 | 8.0 | 0.00 | 0.00 | 0.00 | 34 | 1010.7 |
| 20260905194554 | 80 | 337 | 1.0 | 5.0 | 0.00 | 0.00 | 0.00 | 35 | 1010.8 |
| 20260905194054 | 80 | 27 | 1.0 | 8.0 | 0.00 | 0.00 | 0.00 | 34 | 1010.8 |
| 20260905193554 | 81 | 293 | 4.0 | 8.0 | 0.00 | 0.00 | 0.00 | 33 | 1010.9 |
| 20260905193053 | 81 | 330 | 0.0 | 5.0 | 0.00 | 0.00 | 0.00 | 34 | 1010.8 |
| 20260905192552 | 80 | 287 | 2.0 | 5.0 | 0.00 | 0.00 | 0.00 | 35 | 1010.9 |
| 20260905192056 | 81 | 316 | 1.0 | 4.0 | 0.00 | 0.00 | 0.00 | 33 | 1010.9 |
| 20260905191552 | 81 | 38 | 1.0 | 4.0 | 0.00 | 0.00 | 0.00 | 34 | 1011.0 |
| 20260905191050 | 79 | 33 | 1.0 | 5.0 | 0.00 | 0.00 | 0.00 | 37 | 1011.1 |
| 20260905190548 | 77 | 8 | 1.0 | 6.0 | 0.00 | 0.00 | 0.00 | 39 | 1011.1 |
| 20260905190048 | 77 | 316 | 2.0 | 6.0 | 0.00 | 0.00 | 0.00 | 38 | 1011.2 |
| 20260905185547 | 77 | 230 | 2.0 | 7.0 | 0.00 | 0.00 | 0.00 | 38 | 1011.3 |
| 20260905185050 | 76 | 326 | 4.0 | 7.0 | 0.00 | 0.00 | 0.00 | 40 | 1011.3 |
| 20260905184547 | 76 | 243 | 4.0 | 7.0 | 0.00 | 0.00 | 0.00 | 40 | 1011.3 |
| 20260905184047 | 76 | 186 | 4.0 | 8.0 | 0.00 | 0.00 | 0.00 | 41 | 1011.4 |
| 20260905183547 | 77 | 324 | 2.0 | 8.0 | 0.00 | 0.00 | 0.00 | 40 | 1011.5 |
| 20260905183048 | 77 | 297 | 3.0 | 8.0 | 0.00 | 0.00 | 0.00 | 42 | 1011.5 |
| 20260905182544 | 76 | 283 | 4.0 | 9.0 | 0.00 | 0.00 | 0.00 | 41 | 1011.5 |
| 20260905182045 | 75 | 354 | 3.0 | 9.0 | 0.00 | 0.00 | 0.00 | 41 | 1011.5 |
| 20260905181543 | 75 | 236 | 5.0 | 9.0 | 0.00 | 0.00 | 0.00 | 42 | 1011.5 |
| 20260905181043 | 75 | 269 | 5.0 | 9.0 | 0.00 | 0.00 | 0.00 | 41 | 1011.6 |
| 20260905180545 | 75 | 322 | 2.0 | 8.0 | 0.00 | 0.00 | 0.00 | 43 | 1011.5 |
| 20260905180040 | 74 | 306 | 4.0 | 9.0 | 0.00 | 0.00 | 0.00 | 43 | 1011.5 |
| 20260905175539 | 74 | 249 | 3.0 | 9.0 | 0.00 | 0.00 | 0.00 | 44 | 1011.5 |
| 20260905175040 | 74 | 294 | 3.0 | 9.0 | 0.00 | 0.00 | 0.00 | 43 | 1011.5 |
| 20260905174538 | 74 | 336 | 3.0 | 7.0 | 0.00 | 0.00 | 0.00 | 44 | 1011.4 |
| 20260905174040 | 74 | 313 | 3.0 | 6.0 | 0.00 | 0.00 | 0.00 | 43 | 1011.4 |
| 20260905173536 | 73 | 328 | 2.0 | 10.0 | 0.00 | 0.00 | 0.00 | 44 | 1011.4 |
| 20260905173038 | 73 | 33 | 4.0 | 10.0 | 0.00 | 0.00 | 0.00 | 44 | 1011.3 |
| 20260905172533 | 72 | 322 | 3.0 | 8.0 | 0.00 | 0.00 | 0.00 | 45 | 1011.4 |
| 20260905172031 | 71 | 277 | 3.0 | 5.0 | 0.00 | 0.00 | 0.00 | 45 | 1011.3 |
| 20260905171541 | 71 | 332 | 1.0 | 8.0 | 0.00 | 0.00 | 0.00 | 47 | 1011.3 |
| 20260905171029 | 71 | 294 | 2.0 | 8.0 | 0.00 | 0.00 | 0.00 | 47 | 1011.3 |
| 20260905170529 | 71 | 274 | 3.0 | 8.0 | 0.00 | 0.00 | 0.00 | 48 | 1011.3 |
| 20260905170031 | 70 | 330 | 2.0 | 5.0 | 0.00 | 0.00 | 0.00 | 48 | 1011.3 |
| 20260905165529 | 70 | 328 | 1.0 | 5.0 | 0.00 | 0.00 | 0.00 | 48 | 1011.3 |
| 20260905165026 | 70 | 336 | 2.0 | 8.0 | 0.00 | 0.00 | 0.00 | 49 | 1011.3 |
| 20260905164525 | 70 | 288 | 3.0 | 8.0 | 0.00 | 0.00 | 0.00 | 49 | 1011.3 |
| 20260905164025 | 69 | 4 | 1.0 | 8.0 | 0.00 | 0.00 | 0.00 | 50 | 1011.3 |
| 20260905163523 | 69 | 317 | 2.0 | 5.0 | 0.00 | 0.00 | 0.00 | 52 | 1011.3 |
| 20260905163023 | 68 | 35 | 2.0 | 6.0 | 0.00 | 0.00 | 0.00 | 54 | 1011.2 |
| 20260905162521 | 67 | 341 | 3.0 | 8.0 | 0.00 | 0.00 | 0.00 | 53 | 1011.2 |
| 20260905162019 | 67 | 316 | 4.0 | 9.0 | 0.00 | 0.00 | 0.00 | 52 | 1011.2 |
| 20260905161528 | 67 | 10 | 2.0 | 9.0 | 0.00 | 0.00 | 0.00 | 54 | 1011.2 |
| 20260905161024 | 67 | 18 | 3.0 | 9.0 | 0.00 | 0.00 | 0.00 | 53 | 1011.2 |
| 20260905160520 | 67 | 265 | 3.0 | 10.0 | 0.00 | 0.00 | 0.00 | 53 | 1011.3 |
| 20260905160028 | 67 | 305 | 4.0 | 10.0 | 0.00 | 0.00 | 0.00 | 54 | 1011.2 |
| 20260905155517 | 66 | 301 | 4.0 | 9.0 | 0.00 | 0.00 | 0.00 | 54 | 1011.2 |
| 20260905155017 | 66 | 274 | 5.0 | 9.0 | 0.00 | 0.00 | 0.00 | 55 | 1011.2 |
| 20260905154537 | 65 | 333 | 4.0 | 6.0 | 0.00 | 0.00 | 0.00 | 55 | 1011.2 |
| 20260905154016 | 65 | 338 | 3.0 | 6.0 | 0.00 | 0.00 | 0.00 | 54 | 1011.2 |
| 20260905153515 | 65 | 342 | 2.0 | 6.0 | 0.00 | 0.00 | 0.00 | 54 | 1011.1 |
| 20260905153016 | 65 | 304 | 3.0 | 8.0 | 0.00 | 0.00 | 0.00 | 55 | 1011.0 |
| 20260905152515 | 65 | 347 | 3.0 | 8.0 | 0.00 | 0.00 | 0.00 | 56 | 1011.0 |
| 20260905152013 | 65 | 337 | 1.0 | 9.0 | 0.00 | 0.00 | 0.00 | 58 | 1011.1 |
| 20260905151516 | 65 | 15 | 4.0 | 9.0 | 0.00 | 0.00 | 0.00 | 57 | 1011.1 |
| 20260905151015 | 65 | 287 | 4.0 | 8.0 | 0.00 | 0.00 | 0.00 | 58 | 1011.0 |
| 20260905150513 | 65 | 249 | 3.0 | 9.0 | 0.00 | 0.00 | 0.00 | 59 | 1010.9 |
| 20260905150011 | 64 | 305 | 4.0 | 9.0 | 0.00 | 0.00 | 0.00 | 59 | 1010.9 |
| 20260905145512 | 64 | 289 | 4.0 | 9.0 | 0.00 | 0.00 | 0.00 | 60 | 1010.8 |
| 20260905145011 | 64 | 343 | 5.0 | 9.0 | 0.00 | 0.00 | 0.00 | 60 | 1010.9 |
| 20260905144509 | 64 | 305 | 4.0 | 9.0 | 0.00 | 0.00 | 0.00 | 60 | 1011.0 |
| 20260905144008 | 63 | 336 | 4.0 | 10.0 | 0.00 | 0.00 | 0.00 | 61 | 1010.9 |
| 20260905143508 | 63 | 335 | 4.0 | 10.0 | 0.00 | 0.00 | 0.00 | 61 | 1011.0 |
| 20260905143007 | 63 | 4 | 4.0 | 9.0 | 0.00 | 0.00 | 0.00 | 61 | 1011.0 |
| 20260905142505 | 63 | 295 | 3.0 | 10.0 | 0.00 | 0.00 | 0.00 | 61 | 1010.9 |
| 20260905142005 | 63 | 340 | 2.0 | 11.0 | 0.00 | 0.00 | 0.00 | 62 | 1010.8 |
| 20260905141503 | 63 | 337 | 3.0 | 6.0 | 0.00 | 0.00 | 0.00 | 62 | 1010.8 |
| 20260905141004 | 62 | 264 | 2.0 | 10.0 | 0.00 | 0.00 | 0.00 | 63 | 1010.8 |
| 20260905140501 | 62 | 11 | 5.0 | 10.0 | 0.00 | 0.00 | 0.00 | 62 | 1010.7 |
| 20260905135601 | 62 | 289 | 3.0 | 5.0 | 0.00 | 0.00 | 0.00 | 63 | 1010.7 |
| 20260905135101 | 62 | 339 | 2.0 | 9.0 | 0.00 | 0.00 | 0.00 | 63 | 1010.6 |
| 20260905134558 | 62 | 299 | 3.0 | 9.0 | 0.00 | 0.00 | 0.00 | 62 | 1010.6 |
| 20260905134057 | 62 | 346 | 4.0 | 10.0 | 0.00 | 0.00 | 0.00 | 63 | 1010.5 |
| 20260905133556 | 62 | 315 | 3.0 | 10.0 | 0.00 | 0.00 | 0.00 | 62 | 1010.4 |
| 20260905133057 | 62 | 348 | 4.0 | 10.0 | 0.00 | 0.00 | 0.00 | 63 | 1010.2 |
| 20260905132555 | 62 | 315 | 3.0 | 7.0 | 0.00 | 0.00 | 0.00 | 63 | 1010.3 |
| 20260905132055 | 62 | 303 | 2.0 | 6.0 | 0.00 | 0.00 | 0.00 | 63 | 1010.4 |
| 20260905131556 | 62 | 266 | 1.0 | 6.0 | 0.00 | 0.00 | 0.00 | 63 | 1010.3 |
| 20260905131053 | 62 | 354 | 3.0 | 6.0 | 0.00 | 0.00 | 0.00 | 63 | 1010.1 |
| 20260905130554 | 62 | 328 | 2.0 | 9.0 | 0.00 | 0.00 | 0.00 | 64 | 1010.2 |
| 20260905130052 | 62 | 293 | 3.0 | 9.0 | 0.00 | 0.00 | 0.00 | 64 | 1010.3 |
| 20260905125554 | 62 | 318 | 2.0 | 4.0 | 0.00 | 0.00 | 0.00 | 65 | 1010.4 |
| 20260905125051 | 62 | 300 | 2.0 | 4.0 | 0.00 | 0.00 | 0.00 | 65 | 1010.3 |
| 20260905124552 | 62 | 308 | 1.0 | 8.0 | 0.00 | 0.00 | 0.00 | 66 | 1010.3 |
| 20260905124049 | 62 | 342 | 3.0 | 8.0 | 0.00 | 0.00 | 0.00 | 66 | 1010.3 |
| 20260905123549 | 62 | 334 | 3.0 | 10.0 | 0.00 | 0.00 | 0.00 | 66 | 1010.3 |
| 20260905123049 | 62 | 303 | 3.0 | 10.0 | 0.00 | 0.00 | 0.00 | 66 | 1010.2 |
| 20260905122548 | 62 | 278 | 3.0 | 10.0 | 0.00 | 0.00 | 0.00 | 66 | 1010.2 |
| 20260905122050 | 62 | 345 | 5.0 | 10.0 | 0.00 | 0.00 | 0.00 | 66 | 1010.1 |
| 20260905121547 | 62 | 311 | 4.0 | 9.0 | 0.00 | 0.00 | 0.00 | 66 | 1010.2 |
| 20260905121047 | 62 | 268 | 3.0 | 7.0 | 0.00 | 0.00 | 0.00 | 66 | 1010.2 |
| 20260905120546 | 62 | 270 | 3.0 | 8.0 | 0.00 | 0.00 | 0.00 | 66 | 1010.3 |
| 20260905120045 | 62 | 354 | 2.0 | 9.0 | 0.00 | 0.00 | 0.00 | 66 | 1010.2 |
| 20260905115546 | 62 | 354 | 2.0 | 9.0 | 0.00 | 0.00 | 0.00 | 66 | 1010.2 |
| 20260905115045 | 63 | 334 | 3.0 | 8.0 | 0.00 | 0.00 | 0.00 | 66 | 1010.3 |
| 20260905114553 | 63 | 338 | 4.0 | 8.0 | 0.00 | 0.00 | 0.00 | 66 | 1010.3 |
| 20260905114044 | 63 | 295 | 2.0 | 6.0 | 0.00 | 0.00 | 0.00 | 66 | 1010.4 |